Date String (YYYY-MM-DD hh:mm:ss) UTC,Instrument flags,Ambient pressure (hPa),Sample flow (lpm),Bypass flow (lpm),Sample temperature (°C),Ambient temperature (°C),ASC tube jacket temperature (°C),LED temperature (°C),Box temperature (°C),Sample RH (%),Span deviation,Mass concentration (μg/m³),Mass concentration (μg/m³),Mass concentration (μg/m³)
DateTimeUTC,F1_M11,P_M11,Q1_M11,Q2_M11,T1_M11,T2_M11,T3_M11,T4_M11,T5_M11,U1_M11,ZSPAN_M11,X0_M11,X2_M11,X1_M11
2022-11-24 18:00:00,,0836.2,5.00,0.00,21.4,20.2,00.0,30.3,23.2,15.3,0000.0,0003.22,0001.77,0001.62
2022-11-24 18:01:00,,0836.2,5.00,0.00,21.4,20.2,00.0,30.3,23.2,15.2,0000.0,0002.60,0001.74,0001.61
2022-11-24 18:02:00,,0836.2,5.01,0.00,21.4,20.2,00.0,30.3,23.3,15.2,0000.0,0002.66,0001.76,0001.60
2022-11-24 18:03:00,,0836.2,5.00,0.00,21.4,20.3,00.0,30.3,23.3,15.3,0000.0,0002.72,0001.77,0001.59
2022-11-24 18:04:00,,0836.2,5.01,0.00,21.4,20.3,00.0,30.3,23.2,15.3,0000.0,0002.79,0001.80,0001.60
2022-11-24 18:05:00,,0836.2,5.00,0.00,21.4,20.3,00.0,30.3,23.2,15.2,0000.0,0002.75,0001.78,0001.59
2022-11-24 18:06:00,,0836.3,5.00,0.00,21.4,20.3,00.0,30.3,23.2,15.0,0000.0,0002.70,0001.75,0001.57
2022-11-24 18:07:00,,0836.2,5.00,0.00,21.4,20.3,00.0,30.3,23.2,14.6,0000.0,0002.33,0001.74,0001.56
2022-11-24 18:08:00,,0836.2,5.00,0.00,21.4,20.2,00.0,30.3,23.2,14.7,0000.0,0002.30,0001.75,0001.57
2022-11-24 18:09:00,,0836.2,5.00,0.00,21.4,20.2,00.0,30.3,23.2,14.7,0000.0,0002.70,0001.78,0001.58
2022-11-24 18:10:00,,0836.2,5.00,0.00,21.4,20.2,00.0,30.3,23.3,14.8,0000.0,0002.93,0001.78,0001.59
2022-11-24 18:11:00,,0836.2,5.01,0.00,21.4,20.3,00.0,30.3,23.3,14.8,0000.0,0002.93,0001.79,0001.60
2022-11-24 18:12:00,,0836.2,5.00,0.00,21.5,20.3,00.0,30.3,23.3,14.7,0000.0,0002.99,0001.82,0001.61
2022-11-24 18:13:00,,0836.2,5.00,0.00,21.4,20.3,00.0,30.3,23.3,14.5,0000.0,0002.95,0001.81,0001.62
2022-11-24 18:14:00,,0836.2,4.99,0.00,21.5,20.3,00.0,30.3,23.3,14.6,0000.0,0002.89,0001.79,0001.62
2022-11-24 18:15:00,,0836.2,4.99,0.00,21.5,20.3,00.0,30.3,23.3,14.7,0000.0,0002.81,0001.74,0001.59
2022-11-24 18:16:00,,0836.2,5.00,0.00,21.5,20.3,00.0,30.3,23.3,14.5,0000.0,0002.79,0001.73,0001.58
2022-11-24 18:17:00,,0836.3,5.00,0.00,21.5,20.4,00.0,30.3,23.4,14.6,0000.0,0002.76,0001.72,0001.58
2022-11-24 18:18:00,,0836.2,5.00,0.00,21.5,20.4,00.0,30.4,23.4,14.7,0000.0,0002.83,0001.76,0001.58
2022-11-24 18:19:00,,0836.2,5.01,0.00,21.5,20.5,00.0,30.4,23.4,14.8,0000.0,0002.90,0001.79,0001.59
2022-11-24 18:20:00,,0836.1,5.01,0.00,21.5,20.6,00.0,30.4,23.5,14.8,0000.0,0002.41,0001.77,0001.59
2022-11-24 18:21:00,,0836.1,5.00,0.00,21.6,20.6,00.0,30.4,23.5,14.9,0000.0,0002.11,0001.76,0001.58
2022-11-24 18:22:00,,0836.1,4.99,0.00,21.6,20.6,00.0,30.4,23.5,14.7,0000.0,0002.33,0001.76,0001.57
2022-11-24 18:23:00,,0836.1,4.99,0.00,21.6,20.6,00.0,30.4,23.5,14.8,0000.0,0002.26,0001.73,0001.56
2022-11-24 18:24:00,,0836.1,5.01,0.00,21.6,20.6,00.0,30.4,23.5,14.8,0000.0,0002.23,0001.72,0001.57
2022-11-24 18:25:00,,0836.0,5.01,0.00,21.6,20.7,00.0,30.4,23.6,14.8,0000.0,0002.23,0001.73,0001.57
2022-11-24 18:26:00,,0836.0,5.00,0.00,21.7,20.7,00.0,30.5,23.6,14.8,0000.0,0002.35,0001.76,0001.59
2022-11-24 18:27:00,,0836.0,5.00,0.00,21.7,20.7,00.0,30.5,23.6,15.0,0000.0,0002.45,0001.80,0001.61
2022-11-24 18:28:00,,0835.9,4.99,0.00,21.7,20.8,00.0,30.5,23.6,14.4,0000.0,0002.41,0001.80,0001.61
2022-11-24 18:29:00,,0835.9,5.00,0.00,21.7,20.8,00.0,30.5,23.6,14.6,0000.0,0002.34,0001.77,0001.62
2022-11-24 18:30:00,,0835.9,5.00,0.00,21.7,20.8,00.0,30.5,23.7,14.1,0000.0,0002.25,0001.72,0001.61
2022-11-24 18:31:00,,0835.9,5.00,0.00,21.7,20.8,00.0,30.5,23.7,14.3,0000.0,0002.23,0001.70,0001.60
2022-11-24 18:32:00,,0835.8,5.00,0.00,21.8,20.8,00.0,30.6,23.7,14.4,0000.0,0002.22,0001.69,0001.59
2022-11-24 18:33:00,,0835.9,5.00,0.00,21.8,20.9,00.0,30.6,23.7,14.1,0000.0,0002.33,0001.70,0001.58
2022-11-24 18:34:00,,0835.9,5.01,0.00,21.8,20.9,00.0,30.6,23.7,14.2,0000.0,0002.35,0001.68,0001.57
2022-11-24 18:35:00,,0835.8,5.00,0.00,21.8,20.9,00.0,30.6,23.7,14.0,0000.0,0002.38,0001.70,0001.56
2022-11-24 18:36:00,,0835.8,5.00,0.00,21.9,20.9,00.0,30.6,23.7,14.2,0000.0,0002.39,0001.69,0001.53
2022-11-24 18:37:00,,0835.8,5.01,0.00,21.9,21.0,00.0,30.7,23.8,13.9,0000.0,0002.35,0001.67,0001.52
2022-11-24 18:38:00,,0835.8,5.00,0.00,21.9,21.0,00.0,30.7,23.8,13.7,0000.0,0002.25,0001.63,0001.49
2022-11-24 18:39:00,,0835.7,5.00,0.00,21.9,21.0,00.0,30.7,23.9,13.7,0000.0,0002.27,0001.60,0001.46
2022-11-24 18:40:00,,0835.7,5.00,0.00,21.9,21.0,00.0,30.7,23.9,13.9,0000.0,0002.23,0001.57,0001.42
2022-11-24 18:41:00,,0835.7,5.00,0.00,22.0,21.0,00.0,30.7,23.9,13.7,0000.0,0002.28,0001.57,0001.40
2022-11-24 18:42:00,,0835.7,5.00,0.00,22.0,21.0,00.0,30.7,23.9,13.7,0000.0,0002.32,0001.57,0001.38
2022-11-24 18:43:00,,0835.7,4.99,0.00,22.0,21.0,00.0,30.8,23.9,13.6,0000.0,0002.39,0001.59,0001.37
2022-11-24 18:44:00,,0835.7,4.99,0.00,22.0,21.1,00.0,30.8,24.0,13.8,0000.0,0002.26,0001.61,0001.37
2022-11-24 18:45:00,,0835.7,5.00,0.00,22.0,21.1,00.0,30.8,24.0,13.8,0000.0,0002.09,0001.59,0001.36
2022-11-24 18:46:00,,0835.7,5.01,0.00,22.0,21.1,00.0,30.8,24.0,13.5,0000.0,0002.02,0001.54,0001.34
2022-11-24 18:47:00,,0835.6,5.01,0.00,22.0,21.1,00.0,30.8,24.0,13.9,0000.0,0001.97,0001.51,0001.32
2022-11-24 18:48:00,,0835.7,4.97,0.00,22.1,21.1,00.0,30.8,23.9,14.2,0000.0,0001.93,0001.50,0001.31
2022-11-24 18:49:00,,0835.7,5.00,0.00,22.1,21.2,00.0,30.9,24.0,13.9,0000.0,0001.85,0001.48,0001.30
2022-11-24 18:50:00,,0835.6,5.00,0.00,22.1,21.2,00.0,30.9,24.0,14.0,0000.0,0001.77,0001.45,0001.29
2022-11-24 18:51:00,,0835.6,5.00,0.00,22.1,21.2,00.0,30.9,24.0,13.4,0000.0,0001.77,0001.45,0001.28
2022-11-24 18:52:00,,0835.6,5.01,0.00,22.2,21.2,00.0,30.9,24.0,13.3,0000.0,0001.70,0001.41,0001.26
2022-11-24 18:53:00,,0835.6,5.01,0.00,22.2,21.3,00.0,30.9,24.1,13.5,0000.0,0001.62,0001.37,0001.24
2022-11-24 18:54:00,,0835.6,4.98,0.00,22.2,21.3,00.0,30.9,24.1,13.5,0000.0,0001.56,0001.33,0001.22
2022-11-24 18:55:00,,0835.6,5.00,0.00,22.2,21.3,00.0,31.0,24.1,13.6,0000.0,0001.44,0001.28,0001.20
2022-11-24 18:56:00,,0835.6,5.00,0.00,22.2,21.4,00.0,31.0,24.2,13.5,0000.0,0001.43,0001.26,0001.18
2022-11-24 18:57:00,,0835.6,5.01,0.00,22.3,21.4,00.0,31.0,24.2,13.5,0000.0,0001.46,0001.26,0001.17
2022-11-24 18:58:00,,0835.6,5.01,0.00,22.3,21.4,00.0,31.0,24.2,13.9,0000.0,0001.53,0001.28,0001.16
2022-11-24 18:59:00,,0835.6,4.99,0.00,22.3,21.5,00.0,31.1,24.2,14.0,0000.0,0003.19,0001.26,0001.16
